Flag for U.S.A. Weather past 2 weeks in Dover, Delaware, U.S.A.

Now
67 °F

Partly sunny.


Feels Like: 67 °F
Forecast: 54 / 73 °F
Wind: 3 mph from Northeast

Location: Dover Air Force Base

Current Time: Sep 17, 2014 at 7:41:42 PM

Latest Report: Sep 17, 2014 at 6:58 PM


Visibility: 10 mi

Pressure: 29.97 "Hg

Humidity: 59%

Dew point: 52 °F

Location of DoverLocation

Historic Weather in Dover — Graph

°F

Dover temperature yesterday

Maximum temperature yesterday: 76 °F (at 2:58 PM)
Minimum temperature yesterday: 58 °F (at 11:58 PM)
Average temperature yesterday: 66 °F

Past Weeks' High & Low Weather Summary

 TemperatureHumidityPressure
High93 °F (Sep 6, 2:58 PM)100% (Sep 3, 12:58 AM)30.30 "Hg (Sep 3, 12:58 AM)
Low51 °F (Sep 15, 6:58 AM)39% (Sep 17, 3:58 PM)29.85 "Hg (Sep 2, 6:58 PM)
Average71 °F79%30.08 "Hg
* Reported Sep 2 5:58 PM — Sep 17 5:58 PM, Dover, Weather by CustomWeather, © 2014

Note: Actual official high and low records may vary slightly from our data, if they occured in-between our weather recording intervals... More about our weather records

Advertising

Dover weather history for previous 24 hours

 ConditionsComfort  
Time TempWeatherWind HumidityBarometerVisibility
5:58 PM
Sep 17
69 °FScattered clouds.5 mph50%29.97 "Hg10 mi
4:58 PM73 °FSunny.8 mph41%29.97 "Hg10 mi
3:58 PM74 °FSunny.9 mph39%29.97 "Hg10 mi
2:58 PM74 °FSunny.9 mph41%29.98 "Hg10 mi
1:58 PM74 °FPassing clouds.8 mph40%30.00 "Hg10 mi
12:58 PM71 °FOvercast.5 mph43%30.02 "Hg10 mi
11:58 AM72 °FSunny.7 mph44%30.04 "Hg10 mi
10:58 AM70 °FSunny.No wind51%30.05 "Hg10 mi
9:58 AM67 °FSunny.5 mph65%30.06 "Hg10 mi
8:58 AM63 °FSunny.7 mph81%30.05 "Hg10 mi
7:58 AM56 °FSunny.2 mph99%30.04 "Hg10 mi
6:58 AM52 °FClear.3 mph97%30.03 "Hg10 mi
5:58 AM54 °FClear.2 mph95%30.02 "Hg10 mi
4:58 AM56 °FClear.2 mph94%30.02 "Hg10 mi
3:58 AM54 °FClear.6 mph99%30.01 "Hg10 mi
2:58 AM54 °FClear.6 mph99%30.02 "Hg10 mi
1:58 AM56 °FClear.8 mph93%30.02 "Hg10 mi
12:58 AM57 °FClear.6 mph91%30.01 "Hg10 mi
11:58 PM
Sep 16
58 °FClear.6 mph89%30.02 "Hg10 mi
10:58 PM59 °FClear.6 mph85%30.01 "Hg10 mi
9:58 PM60 °FClear.8 mph84%30.01 "Hg10 mi
8:58 PM63 °FClear.6 mph74%30.00 "Hg10 mi
7:58 PM65 °FPartly sunny.8 mph70%29.99 "Hg10 mi
Weather by CustomWeather, © 2014

See weather overviewHow to use our weather pages